Tracking 19800 objects as of 24-Jul-2019
HD Live streaming from Space Station
objects crossing your sky now

FENGYUN 1C DEB

Track FENGYUN 1C DEB now!
10-day predictions


NORAD ID: 37081
Int'l Code: 1999-025EFR
Perigee: 732.8 km
Apogee: 1,284.6 km
Inclination: 98.7 °
Period: 105.2 minutes
Semi major axis: 7379 km
RCS: 0.0002 m2 (small)
Launch date: May 10, 1999
Source: People's Republic of China (PRC)
Launch site: Taiyaun Space Center, China (TSC)

Note: This is SATELLITE DEBRIS
aabbcc
Your satellite tracking list
Your tracking list is empty




NASA's NSSDC Master Catalog

Two Line Element Set (TLE):
1 37081U 99025EFR 19204.62657774  .00001327  00000-0  95915-3 0  9999
2 37081  98.7099 138.3194 0373814 181.4327 178.5783 13.69445147537439
Source of the keplerian elements: AFSPC